Location: Piotrkow Trybunalski
(51.4000°N, 19.6830°E)
Time: 16:03:10
(UTC+01:00)

Vanguard 2 - Pass Details

Date: 15 February 2023
Orbit: 553 x 2927 km, 32.9° (Epoch: 24 March)

Event Time Altitude Azimuth Distance (km) Brightness Sun altitude
Rises 20:56:40 0° 249° (WSW) 4,446 11.9 -37.1°
Reaches altitude 10° 20:59:44 10° 238° (WSW) 3,785 11.3 -37.5°
Enters shadow 21:06:03 28° 200° (SSW) 3,171 10.4 -38.3°
Maximum altitude 21:08:17 30° 183° (S) 3,260 - -38.6°
Drops below altitude 10° 21:20:17 10° 132° (SE) 5,382 - -40.1°
Sets 21:25:45 0° 123° (ESE) 6,621 - -40.8°
